SL-16 R/B, 17590

Orbit data source: Space-Track

SL-16 R/B, 17590 is space debris in LEO originally from a launch on Wed, 18 Mar 1987 UTC launched from the Tyuratam Missile And Space Complex (TTMTR). Debris objects in space refer to the collection of defunct objects orbiting the Earth. Examples of debris include non-operational satellites, rocket bodies, and fragments generated from explosions, collisions, or faulty payload assembly.

Loading next visibility...
Identifier
17590, 1987-027B
Orbit
LEO
Country
Flag of CISCIS
Related business
Manufacturer
Yuzhnoe
Mission
Spacecraft
Bus & Motor
11S772, Unknown motor
Mass
9,000 kg wet, 9,000 kg dry
Launch date (UTC)
1987-03-18 (39 years ago)
Launch vehicle
Unknown
Launch site
Tyuratam Missile And Space Complex (TTMTR)
Object type
Payload
Rocket body
Debris
Shape & HBR
Cyl, 5.2 m
Radar Cross Section
37.829 m², Large (>1 m²)

Expand to show TLE details & history
Last TLE update: 15 hours ago

TLE from 15 hours ago
0 SL-16 R/B
1 17590U 87027B   25258.35870076 -.00000184  00000-0 -67737-4 0  9993
2 17590  71.0015 285.9515 0004494   0.7564 359.3565 14.17132283990541
Epoch: 2025-09-15T08:36Z
TLE epoch observation values (Epoch: 2025-09-15T08:36:31.745Z)
Latitude
-0.0001°
Longitude
162.2547°
Altitude
834.228 km
Speed
7.438 km/s
True Right ascension
19h 03m 48s
True Declination
0° 00' 00"
Sunlit
Object was in daylight at epoch
Visualization orbit readout
Latitude
Unknown
Longitude
Unknown
Altitude
Unknown
Speed
Unknown
Apparent Right ascension
Unknown
Apparent Declination
Unknown
Sunlit
N/A
Visualization observer readout
Local Sidereal Time
16:15:10
Azimuth
Unknown
Elevation
Unknown
Doppler factor
Unknown
Orbital elements
Apogee altitude
836.231 km
Perigee altitude
829.749 km
Semi-major axis
7,211.127 km
Eccentricity
0.00045
Inclination
71.0015°
RAAN
285.9515°
Arg. of periapsis
0.7564°
True anomaly
359.35592°
Mean anomaly
359.3565°
Eccentric anomaly
359.35621°
Mean motion
3.54436 °/min
Orbital period
101.57 mins
BSTAR
-0.000067737
Loading maneuver chart data...
Computing Atmospheric mass density...
Loading historical data...
Loading historical data...
Loading historical data...
Loading historical data...
Loading historical data...
Loading historical data...
Loading historical data...

Documentation

Showing up to 5 results
|